星链-32652 (STARLINK-32652)

导读 | 豆包AI

STARLINK-32652是美国SpaceX公司星链星座的卫星,于2024年12月5日由猎鹰9号火箭从加利福尼亚范登堡太空军基地发射入低地球轨道,属于星链直连手机星座的组成部分,具备为未改装手机提供偏远地区互联网接入能力。它采用平板设计与霍尔推进器,搭载相控阵天线,可支持高速宽带通信,服役寿命约5-7年,退役后会主动离轨在大气层焚毁。

基本信息
目录编号:
62234
目录名称:
STARLINK-32652
国际标识:
2024-231S
轨道中心:
EARTH
卫星名称:
星链-32652
卫星全名:
星链-32652 (STARLINK-32652)
卫星状态:
在轨 (已飞行465 天)
发射日期:
2024-12-05 UTC
国别 :
美国 (US)
星等 :
--
轨道信息
数据来源 国际轨道数据
星历时间: 2026-03-15T02:04:27+0800
12小时前
查看轨道信息
半长轴: 6853.344km
偏心率: 0.0001064
轨道倾角: 53.158°
近地点辐角 73.460°
升交点赤经 196.104°
平近点角 286.652°
近地点: 474.477km
远地点: 475.937km
周期: 94.105分钟
每日圈数: 15.302028
详细信息
固有亮度:
5
最大亮度:
2.5
卫星平台:
Starlink V1.0
覆盖范围:
全球
运营商:
太空探索技术公司
运营商所在国:
美国
制造商(研发单位):
太空探索技术公司
制造商所在国:
美国
使用方式:
暂无
卫星简介
Starlink 计划是 SpaceX 推出的全球卫星互联网项目,通过发射低轨道卫星,为全球尤其是偏远地区提供高速、低延迟的互联网服务。自 2019 年起,Starlink 已部署数千颗卫星,旨在缩小全球数字鸿沟,推动互联网普及。该项目还为军事、航空等行业提供通信支持,带来广泛经济效益。
2D轨道图
3D轨道图
轨道高度分析图
轨道倾角分析图
轨道综合分析图
查看轨道综合分析图